HB9TQJ-6 Weather Reports


time (UTC)temp
C
wind
direction
speed
KPH
gust
KPH
rain 1hr
cm
rain 24hr
cm
rain mn
cm
humidity
%
barometer
mb
20260506014050 11 90 1.6 3.2 0.00 0.08 0.00 83 1007.4
20260506013028 11 90 1.6 3.2 0.00 0.08 0.00 83 1007.5
20260506012026 12 90 1.6 1.6 0.00 0.08 0.00 82 1007.6
20260506011024 12 90 1.6 3.2 0.00 0.08 0.00 83 1007.7
20260506010021 12 90 1.6 3.2 0.00 0.08 0.00 83 1007.8
20260506005020 11 90 1.6 3.2 0.00 0.08 0.00 83 1007.9
20260506004017 11 90 1.6 3.2 0.00 0.08 0.00 83 1007.9
20260506003020 11 90 1.6 3.2 0.00 0.08 0.00 83 1007.9
20260506002014 12 90 1.6 3.2 0.00 0.08 0.00 82 1008.1
20260506001012 12 90 1.6 3.2 0.00 0.08 0.00 82 1008.1
20260506000010 12 90 1.6 3.2 0.00 0.08 0.00 82 1008.2
20260505235027 12 90 1.6 3.2 0.00 0.08 0.00 82 1008.3
20260505234005 12 90 1.6 3.2 0.00 0.08 0.00 82 1008.4
20260505233023 12 90 1.6 3.2 0.00 0.08 0.00 83 1008.5
20260505231500 12 90 1.6 3.2 0.00 0.08 0.00 83 1008.6
20260505230459 12 90 1.6 3.2 0.00 0.08 0.00 83 1008.6
20260505225457 12 59 1.6 3.2 0.00 0.08 0.00 83 1008.6
20260505224514 12 90 1.6 3.2 0.00 0.08 0.00 83 1008.6
20260505223452 11 90 1.6 3.2 0.00 0.08 0.00 83 1008.6
20260505222450 11 90 1.6 3.2 0.00 0.08 0.00 83 1008.5
20260505221448 11 75 1.6 3.2 0.00 0.08 0.00 83 1008.6
20260505220446 11 90 1.6 3.2 0.00 0.08 0.00 83 1008.7
20260505215444 12 90 1.6 3.2 0.00 0.08 0.08 83 1008.7
20260505214442 12 90 1.6 3.2 0.00 0.08 0.08 83 1008.7
20260505213440 12 90 1.6 3.2 0.00 0.08 0.08 82 1008.8
20260505212438 12 90 1.6 3.2 0.00 0.08 0.08 82 1008.8
20260505211436 12 90 1.6 3.2 0.00 0.08 0.08 82 1008.8
20260505210435 12 90 1.6 3.2 0.00 0.08 0.08 82 1008.8
20260505205432 12 90 1.6 3.2 0.00 0.08 0.08 82 1008.8
20260505204451 12 90 1.6 4.8 0.00 0.08 0.08 82 1008.8
20260505203428 12 90 1.6 3.2 0.00 0.08 0.08 82 1009.0
20260505202426 12 90 1.6 3.2 0.00 0.08 0.08 82 1008.8
20260505201424 12 90 1.6 3.2 0.00 0.08 0.08 82 1008.6
20260505200422 13 90 1.6 3.2 0.00 0.08 0.08 82 1008.6
20260505195421 13 90 1.6 6.4 0.00 0.08 0.08 82 1008.5
20260505194418 13 90 1.6 3.2 0.00 0.08 0.08 82 1008.3
20260505193423 13 113 1.6 3.2 0.00 0.08 0.08 82 1008.3
20260505192414 13 109 1.6 3.2 0.00 0.08 0.08 82 1008.2
20260505191412 13 135 1.6 4.8 0.00 0.08 0.08 82 1008.2
20260505190410 14 90 1.6 3.2 0.00 0.08 0.08 81 1008.2
20260505185413 15 90 1.6 3.2 0.00 0.08 0.08 81 1008.1
20260505184427 15 90 1.6 3.2 0.03 0.08 0.08 81 1008.1
20260505183404 15 90 1.6 3.2 0.03 0.08 0.08 80 1008.0
20260505182402 16 90 1.6 3.2 0.03 0.08 0.08 80 1007.8
20260505181401 16 90 1.6 1.6 0.03 0.08 0.08 79 1007.8
20260505180419 16 90 1.6 1.6 0.03 0.08 0.08 79 1008.0
20260505175356 16 90 1.6 1.6 0.00 0.08 0.05 76 1007.7
20260505174353 16 90 1.6 1.6 0.00 0.08 0.05 75 1008.0
20260505173352 16 90 1.6 1.6 0.00 0.08 0.05 74 1007.7
20260505172350 17 90 1.6 1.6 0.00 0.08 0.05 74 1007.3
20260505171409 17 90 1.6 1.6 0.00 0.08 0.05 74 1007.3
20260505170346 17 90 1.6 1.6 0.00 0.10 0.05 74 1007.3
20260505165344 17 45 1.6 1.6 0.00 0.10 0.05 73 1007.3
20260505164342 17 18 1.6 3.2 0.00 0.10 0.05 71 1007.3
20260505163340 17 53 1.6 1.6 0.00 0.10 0.05 71 1007.4
20260505162338 17 53 1.6 1.6 0.00 0.10 0.05 71 1007.4
20260505161337 18 45 1.6 1.6 0.00 0.13 0.05 71 1007.4
20260505160335 18 45 1.6 1.6 0.00 0.15 0.05 71 1007.4
20260505153328 17 315 1.6 4.8 0.00 0.20 0.05 71 1007.5
20260505152349 18 53 1.6 3.2 0.00 0.20 0.05 71 1007.6
20260505151346 18 53 1.6 3.2 0.00 0.23 0.05 71 1007.6
20260505150322 18 38 1.6 4.8 0.00 0.25 0.05 69 1007.4
20260505140311 20 40 1.6 3.2 0.00 0.25 0.05 66 1006.7
20260505124254 18 50 1.6 1.6 0.00 0.25 0.05 70 1007.4
20260505123255 18 59 1.6 3.2 0.00 0.25 0.05 69 1007.5
20260505122255 18 126 1.6 3.2 0.00 0.25 0.05 70 1007.5
20260505121248 18 90 1.6 3.2 0.00 0.25 0.05 71 1007.8
20260505120246 18 49 1.6 1.6 0.00 0.25 0.05 72 1007.8
20260505115245 18 49 1.6 1.6 0.00 0.25 0.05 72 1007.8
20260505114241 18 90 1.6 3.2 0.00 0.25 0.05 72 1008.0
20260505113247 17 53 1.6 1.6 0.00 0.25 0.05 73 1008.0
20260505112238 17 52 1.6 1.6 0.00 0.25 0.05 74 1008.2
20260505111236 17 90 1.6 3.2 0.00 0.25 0.05 75 1008.3
20260505110253 17 90 1.6 3.2 0.00 0.25 0.05 75 1008.4
20260505101224 17 90 1.6 3.2 0.00 0.25 0.05 73 1008.5
20260505100223 16 90 1.6 1.6 0.00 0.25 0.05 74 1008.4
20260505095220 16 90 1.6 1.6 0.00 0.25 0.05 74 1008.4
20260505094220 16 90 1.6 1.6 0.00 0.25 0.05 74 1008.4
20260505093216 16 90 1.6 3.2 0.00 0.25 0.05 77 1008.5
20260505092215 16 90 1.6 3.2 0.00 0.25 0.05 78 1008.4
20260505091231 15 90 1.6 1.6 0.00 0.25 0.05 79 1008.5
20260505090230 15 55 1.6 3.2 0.00 0.25 0.05 80 1008.5
20260505085208 15 90 1.6 3.2 0.00 0.25 0.05 81 1008.6
20260505084205 15 90 1.6 1.6 0.00 0.25 0.05 82 1008.6
20260505083204 15 90 1.6 3.2 0.00 0.25 0.05 82 1008.7
20260505082202 14 90 1.6 3.2 0.03 0.25 0.05 82 1008.8
20260505081202 14 90 1.6 1.6 0.05 0.25 0.05 82 1009.1
20260505080158 14 90 1.6 3.2 0.05 0.25 0.05 82 1009.1
20260505075156 14 59 1.6 3.2 0.05 0.25 0.05 82 1009.3
20260505074154 13 70 1.6 3.2 0.05 0.23 0.05 83 1009.4
20260505073152 13 90 1.6 1.6 0.05 0.23 0.05 82 1009.4
20260505072150 13 90 1.6 3.2 0.03 0.20 0.03 82 1009.4
20260505071148 13 60 1.6 1.6 0.00 0.20 0.00 81 1009.4
20260505070146 13 60 1.6 3.2 0.00 0.20 0.00 81 1009.5
20260505065204 13 90 1.6 1.6 0.00 0.20 0.00 81 1009.5
20260505064142 13 90 1.6 3.2 0.00 0.20 0.00 82 1009.6
20260505063140 13 90 1.6 3.2 0.00 0.20 0.00 82 1009.7
20260505062139 13 90 1.6 3.2 0.00 0.20 0.00 82 1009.7
20260505061156 13 90 1.6 3.2 0.00 0.20 0.00 82 1009.7
20260505060154 13 90 1.6 3.2 0.00 0.20 0.00 83 1009.7
20260505055132 13 90 1.6 3.2 0.00 0.20 0.00 84 1009.7
20260505054130 12 90 1.6 3.2 0.00 0.20 0.00 84 1009.6
20260505053127 12 90 1.6 3.2 0.00 0.20 0.00 84 1009.5
20260505052126 12 90 1.6 3.2 0.00 0.20 0.00 84 1009.5
20260505051137 12 90 1.6 3.2 0.00 0.20 0.00 84 1009.5
20260505050122 12 90 1.6 3.2 0.00 0.20 0.00 84 1009.4
20260505041112 12 90 1.6 3.2 0.00 0.20 0.00 84 1009.4
20260505040113 12 90 1.6 3.2 0.00 0.20 0.00 84 1009.4
20260505035108 12 90 1.6 3.2 0.00 0.20 0.00 84 1009.5
20260505034106 12 90 1.6 3.2 0.00 0.20 0.00 84 1009.6
20260505033105 12 90 1.6 1.6 0.00 0.20 0.00 83 1009.6
20260505032103 12 90 1.6 3.2 0.00 0.20 0.00 84 1009.6
20260505031120 12 90 1.6 3.2 0.00 0.20 0.00 84 1009.6
20260505030058 12 90 1.6 3.2 0.00 0.20 0.00 84 1009.6
20260505025057 12 90 1.6 3.2 0.00 0.20 0.00 84 1009.9
20260505024054 12 90 1.6 3.2 0.00 0.20 0.00 84 1009.9
20260505023052 12 90 1.6 3.2 0.00 0.20 0.00 84 1010.0
20260505022050 12 90 1.6 3.2 0.00 0.20 0.00 84 1010.1
20260505021048 12 90 1.6 3.2 0.00 0.20 0.00 84 1010.1
20260505020046 12 90 1.6 3.2 0.00 0.20 0.00 84 1010.0
20260505015044 13 90 1.6 3.2 0.00 0.20 0.00 84 1010.1